Scottsbluff, NE

2:51 PM MDT on April 28, 2017 (GMT -0600)
Heilig

Weather History for KBFF - May, 2014

Change the Weather History Date:

Friday, May 2, 2014

  Actual Average Record
Temperature  
Mean Temperature 54 °F 52 °F  
Max Temperature 81 °F 67 °F 88 °F (1981)
Min Temperature 27 °F 37 °F 15 °F (1898)
Degree Days  
Heating Degree Days 11 13  
Month to date heating degree days 31 13  
Since 1 July heating degree days 6391 6306  
Cooling Degree Days 0 0  
Month to date cooling degree days 0 0  
Year to date cooling degree days 0 2  
Growing Degree Days 4 (Base 50)    
Moisture  
Dew Point 34 °F    
Average Humidity 50    
Maximum Humidity 80    
Minimum Humidity 20    
Precipitation  
Precipitation T in 0.06 in 0.89 in (1987)
Month to date precipitation T 0.06  
Year to date precipitation 3.07 3.90  
Snow  
Snow 0.00 in 0.00 in 3.40 in (2013)
Month to date snowfall 0.0 0.0  
Since 1 July snowfall 61.5 41.6  
Snow Depth -    
Sea Level Pressure  
Sea Level Pressure 29.90 in    
Wind  
Wind Speed 11 mph (NNW)    
Max Wind Speed 32 mph    
Max Gust Speed 42 mph    
Visibility 10 miles    
Events Thunderstorm    
T = Trace of Precipitation, MM = Missing Value Source: NWS Daily Summary

Daily Weather History Graph

Daily Weather History Graph

Search for Another Location

Airport or City:

Trip Planner

Search our weather history database for the weather conditions in past years. The results will help you decide how hot, cold, wet, or windy it might be!

Date:

Astronomy

May. 02, 2014 Rise Set
Actual Time 5:49 AM MDT 7:54 PM MDT
Civil Twilight 5:18 AM MDT 8:24 PM MDT
Nautical Twilight 4:41 AM MDT 9:02 PM MDT
Astronomical Twilight 4:00 AM MDT 9:43 PM MDT
Moon 8:27 AM MDT (5/2) 11:19 PM MDT (5/2)
Length of Visible Light 15h 05m
Length of Day
14h 04m
Waxing Crescent, 13% of the Moon is Illuminated
May 2
Waxing Crescent
May 6
First Quarter
May 14
Full
May 21
Last Quarter
May 28
New

Hourly Weather History & Observations

Time (MDT) Temp. Windchill Dew Point Humidity Pressure Visibility Wind Dir Wind Speed Gust Speed Precip Events Conditions
12:53 AM 35.1 °F 30.1 °F 25.0 °F 67% 30.07 in 10.0 mi NNE 5.8 mph - N/A   Clear
1:53 AM 33.1 °F - 23.0 °F 66% 30.05 in 10.0 mi Calm Calm - N/A   Clear
2:53 AM 30.9 °F 25.2 °F 23.0 °F 72% 30.05 in 10.0 mi NNW 5.8 mph - N/A   Clear
3:53 AM 28.9 °F 25.2 °F 21.9 °F 75% 30.04 in 10.0 mi WNW 3.5 mph - N/A   Clear
4:53 AM 28.9 °F 23.9 °F 21.9 °F 75% 30.03 in 10.0 mi NNW 4.6 mph - N/A   Clear
5:53 AM 28.0 °F 20.8 °F 23.0 °F 81% 30.02 in 10.0 mi WNW 6.9 mph - N/A   Clear
6:53 AM 35.1 °F 29.3 °F 28.0 °F 76% 30.01 in 10.0 mi Variable 6.9 mph - N/A   Clear
7:53 AM 45.0 °F 40.1 °F 30.9 °F 58% 29.98 in 10.0 mi WNW 9.2 mph 23.0 mph N/A   Clear
8:53 AM 48.9 °F - 32.0 °F 52% 29.97 in 10.0 mi WNW 11.5 mph - N/A   Clear
9:53 AM 60.1 °F - 35.1 °F 39% 29.93 in 10.0 mi WNW 9.2 mph - N/A   Clear
10:53 AM 66.9 °F - 39.0 °F 36% 29.90 in 10.0 mi West 11.5 mph - N/A   Clear
11:53 AM 73.0 °F - 35.1 °F 25% 29.86 in 10.0 mi WNW 18.4 mph 25.3 mph N/A   Clear
12:53 PM 77.0 °F - 34.0 °F 21% 29.83 in 10.0 mi WNW 17.3 mph 26.5 mph N/A   Partly Cloudy
1:53 PM 77.0 °F - 34.0 °F 21% 29.81 in 10.0 mi NW 17.3 mph 25.3 mph N/A   Mostly Cloudy
2:53 PM 73.9 °F - 34.0 °F 23% 29.82 in 10.0 mi NW 17.3 mph 23.0 mph N/A   Mostly Cloudy
3:53 PM 80.1 °F - 36.0 °F 20% 29.79 in 10.0 mi NW 18.4 mph 27.6 mph N/A   Mostly Cloudy
4:53 PM 77.0 °F - 35.1 °F 22% 29.79 in 10.0 mi NNW 13.8 mph - N/A   Partly Cloudy
5:48 PM 73.4 °F - 37.4 °F 27% 29.85 in 10.0 mi North 16.1 mph - 0.00 in Thunderstorm Partly Cloudy
5:53 PM 73.9 °F - 37.9 °F 27% 29.81 in 10.0 mi NNE 13.8 mph - 0.00 in Thunderstorm Clear
6:15 PM 70.0 °F - 37.9 °F 31% 29.85 in 10.0 mi North 6.9 mph - N/A   Scattered Clouds
6:53 PM 69.1 °F - 37.0 °F 31% 29.82 in 10.0 mi West 9.2 mph - 0.00 in   Mostly Cloudy
7:53 PM 63.0 °F - 43.0 °F 48% 29.81 in 10.0 mi East 8.1 mph - N/A   Clear
8:53 PM 59.0 °F - 44.1 °F 58% 29.85 in 10.0 mi NE 19.6 mph - N/A   Clear
9:53 PM 54.0 °F - 42.1 °F 64% 29.86 in 10.0 mi ENE 18.4 mph - N/A   Clear
10:53 PM 50.0 °F - 42.1 °F 74% 29.88 in 10.0 mi ENE 6.9 mph - N/A   Clear
11:53 PM 48.9 °F - 42.1 °F 77% 29.89 in 10.0 mi SE 4.6 mph - N/A   Clear